TimeCST,TemperatureF,Dew PointF,Humidity,Sea Level PressureIn,VisibilityMPH,Wind Direction,Wind SpeedMPH,Gust SpeedMPH,PrecipitationIn,Events,Conditions,WindDirDegrees,DateUTC
12:41 AM,71.6,68.0,88,29.79,2.5,NNE,4.6,-,N/A,,Overcast,20,2013-02-22 06:41:00
12:53 AM,71.1,68.0,90,29.79,2.0,NNE,5.8,-,N/A,,Overcast,20,2013-02-22 06:53:00
1:14 AM,71.6,68.0,88,29.79,1.8,North,5.8,-,N/A,,Overcast,360,2013-02-22 07:14:00
1:53 AM,71.1,69.1,93,29.78,1.8,NNE,5.8,-,N/A,,Overcast,20,2013-02-22 07:53:00
2:53 AM,71.1,69.1,93,29.77,1.2,NNE,4.6,-,N/A,,Overcast,30,2013-02-22 08:53:00
3:53 AM,71.1,68.0,90,29.76,0.8,NE,9.2,-,N/A,,Mist,40,2013-02-22 09:53:00
4:09 AM,69.8,68.0,94,29.76,1.0,NE,8.1,-,N/A,,Mist,40,2013-02-22 10:09:00
4:53 AM,70.0,68.0,93,29.75,1.0,NNE,6.9,-,N/A,,Mist,30,2013-02-22 10:53:00
5:53 AM,71.1,69.1,93,29.77,1.5,NE,6.9,-,N/A,,Overcast,50,2013-02-22 11:53:00
6:10 AM,71.6,69.8,94,29.78,2.5,NE,6.9,-,N/A,,Overcast,50,2013-02-22 12:10:00
6:20 AM,71.6,68.0,88,29.78,3.0,ENE,8.1,-,N/A,,Overcast,60,2013-02-22 12:20:00
6:51 AM,71.6,69.8,94,29.80,2.0,ENE,5.8,-,N/A,,Overcast,60,2013-02-22 12:51:00
6:53 AM,71.1,69.1,93,29.80,2.0,ENE,5.8,-,N/A,,Overcast,60,2013-02-22 12:53:00
7:03 AM,71.6,69.8,94,29.80,1.8,NE,3.5,-,N/A,,Overcast,50,2013-02-22 13:03:00
7:16 AM,71.6,69.8,94,29.81,2.0,NE,4.6,-,N/A,,Overcast,50,2013-02-22 13:16:00
7:24 AM,71.6,69.8,94,29.81,1.5,Calm,Calm,-,N/A,,Overcast,0,2013-02-22 13:24:00
7:53 AM,72.0,69.1,91,29.82,3.0,NNE,5.8,-,N/A,,Overcast,30,2013-02-22 13:53:00
8:53 AM,73.0,70.0,90,29.84,5.0,ENE,9.2,-,N/A,,Overcast,60,2013-02-22 14:53:00
9:13 AM,73.4,69.8,88,29.85,2.5,ENE,8.1,-,N/A,,Overcast,60,2013-02-22 15:13:00
9:23 AM,73.4,69.8,88,29.86,4.0,NE,4.6,-,N/A,,Overcast,50,2013-02-22 15:23:00
9:53 AM,75.0,70.0,84,29.86,6.0,East,5.8,-,N/A,,Haze,80,2013-02-22 15:53:00
10:37 AM,77.0,69.8,78,29.86,6.0,ENE,5.8,-,N/A,,Haze,60,2013-02-22 16:37:00
11:53 AM,73.9,66.9,79,29.86,6.0,North,11.5,-,N/A,,Haze,350,2013-02-22 17:53:00
12:53 PM,78.1,68.0,71,29.83,6.0,NE,9.2,-,N/A,,Haze,40,2013-02-22 18:53:00
1:04 PM,77.0,68.0,74,29.82,6.0,NNE,9.2,-,N/A,,Haze,20,2013-02-22 19:04:00
1:14 PM,75.2,68.0,78,29.82,6.0,NNE,10.4,-,N/A,,Haze,20,2013-02-22 19:14:00
1:42 PM,75.2,69.8,83,29.80,6.0,NNE,10.4,-,N/A,,Haze,20,2013-02-22 19:42:00
1:53 PM,75.0,68.0,79,29.81,6.0,North,11.5,-,N/A,,Haze,10,2013-02-22 19:53:00
2:53 PM,73.9,66.0,76,29.78,7.0,NNE,12.7,-,N/A,,Overcast,30,2013-02-22 20:53:00
3:53 PM,73.0,64.0,73,29.78,7.0,NNE,12.7,-,N/A,,Overcast,30,2013-02-22 21:53:00
4:53 PM,72.0,64.0,76,29.79,7.0,NNE,13.8,-,N/A,,Overcast,20,2013-02-22 22:53:00
5:53 PM,71.1,64.0,78,29.81,7.0,NNE,13.8,-,N/A,,Overcast,30,2013-02-22 23:53:00
6:53 PM,71.1,63.0,75,29.82,9.0,NE,12.7,-,N/A,,Overcast,40,2013-02-23 00:53:00
7:53 PM,70.0,64.0,81,29.84,8.0,NNE,12.7,-,N/A,,Overcast,30,2013-02-23 01:53:00
8:53 PM,70.0,64.0,81,29.86,8.0,NE,15.0,19.6,N/A,,Overcast,40,2013-02-23 02:53:00
9:08 PM,69.8,64.4,83,29.86,8.0,NNE,15.0,-,N/A,,Overcast,30,2013-02-23 03:08:00
9:53 PM,70.0,64.0,81,29.86,8.0,NNE,11.5,-,N/A,,Overcast,30,2013-02-23 03:53:00
10:53 PM,69.1,64.0,84,29.87,8.0,NNE,10.4,-,N/A,,Overcast,30,2013-02-23 04:53:00
11:53 PM,69.1,64.0,84,29.86,8.0,North,15.0,-,N/A,,Overcast,10,2013-02-23 05:53:00